Weather observations for the past three days for
Wooster, Wayne County Airport
| Date | Time (edt) | Wind (mph) | Vis. (mi.) | Weather | Sky Cond. | Temperature (ºF) | Relative Humidity | Wind Chill (°F) | Heat Index (°F) | Pressure | Precipitation (in) | ||||||
|---|---|---|---|---|---|---|---|---|---|---|---|---|---|---|---|---|---|
| Air | Dwpt | 6 hour | altimeter (in) | sea level (mb) | 1 hr | 3 hr | 6 hr | ||||||||||
| Max. | Min. | ||||||||||||||||
| 03 | 01:56 | W 6 | 10.00 | Fair | CLR | 75.9 | 71.1 | 81 | 75.9 | 85% | 76 | 30.01 | 1015.0 | ||||
| 03 | 00:56 | SW 7 | 10.00 | Fair | CLR | 77 | 71.1 | 82% | 79 | 30 | 1014.7 | ||||||
| 02 | 23:56 | SW 8 | 10.00 | Fair | CLR | 77 | 71.1 | 82% | 79 | 29.98 | 1014.2 | ||||||
| 02 | 22:56 | SW 7 | 10.00 | Fair | CLR | 77 | 71.1 | 82% | 79 | 30 | 1014.9 | ||||||
| 02 | 21:56 | SW 7 | 10.00 | Fair | CLR | 78.1 | 72 | 82% | 80 | 30.01 | 1015.2 | ||||||
| 02 | 20:56 | SW 7 | 10.00 | Fair | CLR | 80.1 | 73 | 79% | 84 | 30.01 | 1015.1 | ||||||
| 02 | 19:56 | SW 6 | 10.00 | Fair | CLR | 82 | 73 | 89.1 | 82 | 74% | 87 | 29.99 | 1014.7 | ||||
| 02 | 18:56 | SW 7 | 10.00 | Fair | CLR | 86 | 73 | 65% | 93 | 30 | 1014.7 | ||||||
| 02 | 17:56 | W 8 | 10.00 | Fair | CLR | 87.1 | 75 | 67% | 97 | 30 | 1014.8 | ||||||
| 02 | 16:56 | SW 8 | 10.00 | Fair | CLR | 89.1 | 73.9 | 61% | 98 | 30.01 | 1015.1 | ||||||
| 02 | 15:56 | SW 10 | 10.00 | A Few Clouds | FEW044 | 89.1 | 75 | 63% | 99 | 30.02 | 1015.6 | ||||||
| 02 | 14:56 | SW 7 | 10.00 | Fair | CLR | 88 | 77 | 70% | 100 | 30.04 | 1016.2 | ||||||
| 02 | 13:56 | SW 7 | 10.00 | Fair | CLR | 87.1 | 75.9 | 88 | 73.9 | 70% | 98 | 30.06 | 1016.8 | ||||
| 02 | 12:56 | SW 6 | 10.00 | A Few Clouds | FEW100 | 86 | 75.9 | 72% | 96 | 30.07 | 1017.3 | ||||||
| 02 | 11:56 | S 5 | 10.00 | Mostly Cloudy | BKN085 | 84 | 75.9 | 77% | 93 | 30.08 | 1017.8 | ||||||
| 02 | 10:56 | SW 6 | 10.00 | Fair | CLR | 82 | 75 | 79% | 89 | 30.08 | 1017.8 | ||||||
| 02 | 09:56 | SW 7 | 10.00 | Mostly Cloudy | BKN085 | 79 | 73 | 82% | 82 | 30.08 | 1017.8 | ||||||
| 02 | 08:56 | SW 8 | 10.00 | Light Rain | FEW110 | 75.9 | 72 | 88% | 76 | 30.07 | 1017.5 | ||||||
| 02 | 07:56 | SW 3 | 7.00 | Mostly Cloudy | BKN110 | 73.9 | 72 | 73.9 | 68 | 94% | 30.07 | 1017.4 | |||||
| 02 | 06:56 | SW 3 | 9.00 | A Few Clouds | FEW095 | 72 | 71.1 | 97% | 30.05 | 1016.8 | |||||||
| 02 | 05:56 | Calm | 5.00 | Fog/Mist | SCT095 | 69.1 | 69.1 | 100% | 30.05 | 1016.7 | |||||||
| 02 | 04:56 | SW 3 | 8.00 | Fair | CLR | 72 | 72 | 100% | 30.06 | 1016.9 | |||||||
| 02 | 03:56 | Calm | 0.50 | Fog | CLR | 69.1 | 69.1 | 100% | 30.05 | 1016.7 | |||||||
| 02 | 02:56 | S 3 | 0.25 | Fog | CLR | 69.1 | 69.1 | 100% | 30.05 | 1016.8 | |||||||
| 02 | 01:56 | Calm | 0.50 | Fog | CLR | 70 | 70 | 77 | 68 | 100% | 30.06 | 1017.1 | |||||
| 02 | 00:56 | Calm | 2.50 | Fog/Mist | CLR | 72 | 71.1 | 97% | 30.05 | 1016.7 | |||||||
| 01 | 23:56 | S 5 | 3.00 | Fog/Mist | CLR | 70 | 70 | 100% | 30.05 | 1016.7 | |||||||
| 01 | 22:56 | Calm | 1.25 | Fog/Mist | CLR | 71.1 | 71.1 | 100% | 30.05 | 1016.6 | |||||||
| 01 | 21:56 | Calm | 3.00 | Fog/Mist | CLR | 71.1 | 71.1 | 100% | 30.03 | 1016.1 | |||||||
| 01 | 20:56 | SW 3 | 7.00 | Fair | CLR | 73.9 | 73.9 | 100% | 30.02 | 1015.7 | |||||||
| 01 | 19:56 | W 3 | 10.00 | Fair | CLR | 77 | 73.9 | 84 | 77 | 90% | 78 | 30.01 | 1015.6 | 0.01 | 0.01 | ||
| 01 | 18:56 | W 8 | 10.00 | Light Rain | CLR | 79 | 73 | 82% | 82 | 30.04 | 1016.5 | ||||||
| 01 | 17:56 | SW 8 | 10.00 | Fair | CLR | 81 | 73 | 77% | 86 | 30.05 | 1016.6 | ||||||
| 01 | 16:56 | W 9 G 20 | 10.00 | Fair | CLR | 82.9 | 73 | 72% | 89 | 30.04 | 1016.5 | ||||||
| 01 | 15:56 | SW 12 | 10.00 | Fair | CLR | 82 | 73 | 74% | 87 | 30.04 | 1016.5 | ||||||
| 01 | 14:56 | SW 12 | 10.00 | Fair | CLR | 82 | 73.9 | 77% | 88 | 30.04 | 1016.4 | ||||||
| 01 | 13:56 | SW 8 | 10.00 | Fair | CLR | 79 | 73 | 82.9 | 73 | 82% | 82 | 30.06 | 1017.1 | ||||
| 01 | 12:56 | W 13 | 10.00 | Fair | CLR | 80.1 | 72 | 76% | 84 | 30.08 | 1017.7 | ||||||
| 01 | 11:56 | SW 15 G 21 | 10.00 | Fair | CLR | 81 | 73 | 77% | 86 | 30.08 | 1017.6 | ||||||
| 01 | 10:56 | W 14 G 22 | 10.00 | Fair | CLR | 82 | 72 | 72% | 87 | 30.06 | 1017.1 | ||||||
| 01 | 09:56 | SW 8 | 10.00 | Fair | CLR | 79 | 72 | 79% | 82 | 30.06 | 1016.9 | ||||||
| 01 | 08:56 | SW 5 | 10.00 | Fair | CLR | 75.9 | 71.1 | 85% | 76 | 30.06 | 1017.1 | ||||||
| 01 | 07:56 | SW 6 | 9.00 | Fair | CLR | 73 | 70 | 73 | 71.1 | 90% | 30.06 | 1017.1 | |||||
| 01 | 06:56 | SW 6 | 10.00 | Partly Cloudy | SCT110 | 72 | 69.1 | 91% | 30.05 | 1016.7 | |||||||
| 01 | 05:56 | SW 6 | 10.00 | Overcast | OVC095 | 73 | 70 | 90% | 30.04 | 1016.3 | |||||||
| 01 | 04:56 | SW 7 | 10.00 | Overcast | OVC100 | 73 | 70 | 90% | 30.04 | 1016.4 | |||||||
| 01 | 03:56 | SW 7 | 10.00 | Partly Cloudy | SCT100 | 73 | 70 | 90% | 30.04 | 1016.4 | |||||||
| 01 | 02:56 | SW 6 | 10.00 | Fair | CLR | 72 | 69.1 | 91% | 30.05 | 1016.5 | |||||||
| 01 | 01:56 | S 5 | 10.00 | Mostly Cloudy | BKN110 | 72 | 69.1 | 77 | 68 | 91% | 30.06 | 1016.8 | |||||
| 01 | 00:56 | S 5 | 9.00 | Partly Cloudy | SCT110 | 70 | 68 | 93% | 30.06 | 1017.1 | |||||||
| 31 | 23:56 | Calm | 10.00 | Partly Cloudy | SCT110 | 71.1 | 68 | 90% | 30.07 | 1017.3 | |||||||
| 31 | 22:56 | S 3 | 10.00 | Fair | CLR | 71.1 | 69.1 | 94% | 30.04 | 1016.6 | |||||||
| 31 | 21:56 | Calm | 10.00 | Light Rain | SCT110 | 75 | 70 | 84% | 75 | 30.06 | 1017.0 | ||||||
| 31 | 20:56 | SW 7 | 10.00 | Fair | CLR | 75.9 | 70 | 82% | 77 | 30.06 | 1017.0 | ||||||
| 31 | 18:56 | W 5 | 10.00 | Fair | CLR | 80.1 | 71.1 | 74% | 84 | 30.07 | 1017.6 | ||||||
| 31 | 17:56 | W 3 | 10.00 | Fair | CLR | 82.9 | 72 | 70% | 88 | 30.07 | 1017.4 | ||||||
| 31 | 16:56 | NW 5 | 10.00 | A Few Clouds | FEW050 FEW120 | 82.9 | 72 | 70% | 88 | 30.07 | 1017.4 | ||||||
| 31 | 15:56 | W 6 | 10.00 | Light Rain | FEW070 SCT100 BKN120 | 81 | 69.1 | 67% | 84 | 30.07 | 1017.6 | ||||||
| 31 | 14:56 | W 13 G 22 | 10.00 | A Few Clouds | FEW047 | 84 | 69.1 | 61% | 88 | 30.09 | 1018.2 | ||||||
| 31 | 13:56 | W 10 G 17 | 10.00 | Partly Cloudy | FEW100 SCT120 | 84.9 | 70 | 84.9 | 70 | 61% | 89 | 30.1 | 1018.6 | ||||
| 31 | 12:56 | W 10 | 10.00 | Mostly Cloudy | BKN100 | 82.9 | 70 | 65% | 87 | 30.12 | 1019.0 | ||||||
| 31 | 11:56 | W 9 | 10.00 | Mostly Cloudy | BKN090 | 82 | 69.1 | 65% | 85 | 30.12 | 1019.0 | ||||||
| 31 | 10:56 | SW 5 | 10.00 | Partly Cloudy | FEW065 SCT080 | 79 | 71.1 | 77% | 82 | 30.12 | 1019.1 | ||||||
| 31 | 09:56 | SW 5 | 10.00 | Overcast | SCT060 BKN075 OVC090 | 72 | 70 | 94% | 30.12 | 1019.3 | |||||||
| 31 | 08:56 | Calm | 9.00 | Overcast | BKN070 OVC090 | 71.1 | 69.1 | 94% | 30.12 | 1019.3 | |||||||
| 31 | 07:56 | Calm | 9.00 | Overcast | BKN085 OVC110 | 70 | 68 | 70 | 66.9 | 93% | 30.12 | 1019.2 | |||||
| 31 | 06:56 | S 3 | 10.00 | Mostly Cloudy | BKN120 | 69.1 | 66 | 90% | 30.1 | 1018.7 | |||||||
| 31 | 05:56 | S 3 | 10.00 | Mostly Cloudy | BKN110 | 68 | 64.9 | 90% | 30.09 | 1018.3 | |||||||
| 31 | 04:56 | Calm | 10.00 | Fair | CLR | 66.9 | 64.9 | 93% | 30.09 | 1018.5 | |||||||
| 31 | 03:56 | S 3 | 8.00 | Overcast | OVC110 | 66.9 | 64.9 | 93% | 30.1 | 1018.6 | |||||||
| 31 | 02:56 | SE 3 | 9.00 | Fair | CLR | 66.9 | 64.9 | 93% | 30.1 | 1018.6 | |||||||
| Date | Time (edt) | Wind (mph) | Vis. (mi.) | Weather | Sky Cond. | Air | Dwpt | Max. | Min. | Relative Humidity | Wind Chill (°F) | Heat Index (°F) | altimeter (in) | sea level (mb) | 1 hr | 3 hr | 6 hr |
| 6 hour | |||||||||||||||||
| Temperature (ºF) | Pressure | Precipitation (in) | |||||||||||||||